Terminal Aerodrome Forecast
Issued by NWS

Home | Current Version | Previous Version | Text Only | Print | Product List | Glossary On
Versions: 1 2 3 4 5 6 7 8 9 10 11 12 13 14 15 16 17 18 19 20 21 22 23 24 25 26 27 28
000
FTUS43 KDLH 280520
TAFHYR
TAF
KHYR 280520Z 2806/2906 02006KT P6SM VCSH OVC007
     FM281800 02010KT P6SM OVC019
     FM282200 02009KT P6SM SCT019
     FM290100 03005KT P6SM OVC003=

USA.gov is the U.S. government's official web portal to all federal, state and local government web resources and services.